Flag for Austria Weather past 2 weeks in Oberwart, Burgenland, Austria

Now
54 °F

Cool.


Feels Like: 54 °F
Forecast: 53 / 73 °F
Wind: 2 mph from North

Location: Eisenstadt

Current Time: Aug 29, 2014 at 2:11:51 AM

Latest Report: Aug 29, 2014 at 1:00 AM


Visibility: N/A

Pressure: 30.10 "Hg

Humidity: 88%

Dew point: 51 °F

Location of OberwartLocation

Historic Weather in Oberwart — Graph

°F

Oberwart temperature yesterday

Maximum temperature yesterday: 72 °F (at 4:00 PM)
Minimum temperature yesterday: 53 °F (at 1:00 AM)
Average temperature yesterday: 62 °F

Past Weeks' High & Low Weather Summary

 TemperatureHumidityPressure
High78 °F (Aug 18, 3:00 PM)95% (Aug 15, 9:00 PM)30.13 "Hg (Aug 15, 9:00 PM)
Low49 °F (Aug 25, 5:00 AM)40% (Aug 28, 3:00 PM)29.72 "Hg (Aug 27, 4:00 AM)
Average63 °F72%29.95 "Hg
* Reported Midnight between Aug 13 and Aug 14 — Midnight between Aug 28 and Aug 29, Oberwart, Weather by CustomWeather, © 2014

Note: Actual official high and low records may vary slightly from our data, if they occured in-between our weather recording intervals... More about our weather records

Advertising

Oberwart weather history for previous 24 hours

 ConditionsComfort  
Time TempWeatherWind HumidityBarometerVisibility
12:00 AM
Aug 29
55 °FCool.2 mph87%30.10 "HgN/A
11:00 PM
Aug 28
56 °FCool.2 mph87%30.10 "HgN/A
10:00 PM56 °FCool.3 mph84%30.09 "HgN/A
9:00 PM58 °FCool.3 mph81%30.09 "HgN/A
8:00 PM60 °FClear.2 mph78%30.07 "Hg12 mi
7:00 PM69 °FSunny.2 mph49%30.06 "Hg12 mi
6:00 PM71 °FMild.3 mph45%30.06 "HgN/A
5:00 PM72 °FPassing clouds.3 mph45%30.06 "Hg12 mi
4:00 PM72 °FMild.5 mph44%30.06 "HgN/A
3:00 PM72 °FMild.1 mph40%30.08 "HgN/A
2:00 PM70 °FScattered clouds.1 mph41%30.09 "Hg12 mi
1:00 PM69 °FMild.2 mph42%30.10 "HgN/A
12:00 PM67 °FMild.1 mph53%30.11 "HgN/A
11:00 AM67 °FMild.1 mph53%30.11 "HgN/A
10:00 AM66 °FMild.1 mph53%30.11 "HgN/A
9:00 AM64 °FMild.5 mph63%30.11 "HgN/A
8:00 AM60 °FSunny.5 mph70%30.10 "Hg12 mi
7:00 AM55 °FSunny.3 mph83%30.10 "Hg12 mi
6:00 AM55 °FClear.5 mph80%30.09 "Hg9 mi
5:00 AM55 °FClear.3 mph79%30.09 "Hg9 mi
4:00 AM56 °FClear.5 mph80%30.08 "Hg9 mi
3:00 AM56 °FCool.5 mph82%30.07 "HgN/A
2:00 AM55 °FClear.5 mph85%30.08 "Hg9 mi
Weather by CustomWeather, © 2014

See weather overviewHow to use our weather pages